Weather History for LIRE - November, 2012

Change the Weather History Date:

Monday, November 26, 2012

  Actual Average Record
Temperature  
Mean Temperature 56 °F -  
Max Temperature 65 °F 58 °F 69 °F (2002)
Min Temperature 48 °F 43 °F 37 °F (2013)
Degree Days  
Heating Degree Days 8    
Growing Degree Days 6 (Base 50)    
Moisture  
Dew Point 49 °F    
Average Humidity 75    
Maximum Humidity 87    
Minimum Humidity 52    
Precipitation  
Precipitation 0.00 in 0.14 in - ()
Sea Level Pressure  
Sea Level Pressure 30.10 in    
Wind  
Wind Speed 5 mph ()    
Max Wind Speed 13 mph    
Max Gust Speed -    
Visibility 7.3 miles    
Events      
Averages and records for this station are not official NWS values.
T = Trace of Precipitation, MM = Missing Value Source: Averaged Metar Reports

Daily Weather History Graph

Daily Weather History Graph

Search for Another Location

Airport or City:

Trip Planner

Search our weather history database for the weather conditions in past years. The results will help you decide how hot, cold, wet, or windy it might be!

Date:

Astronomy

Nov. 26, 2012 Rise Set
Actual Time 7:12 AM CET 4:42 PM CET
Civil Twilight 6:41 AM CET 5:13 PM CET
Nautical Twilight 6:07 AM CET 5:47 PM CET
Astronomical Twilight 5:34 AM CET 6:20 PM CET
Moon 3:25 PM CET (11/26) 5:05 AM CET (11/26)
Length of Visible Light 10h 31m
Length of Day
9h 30m
Waxing Gibbous, 96% of the Moon is Illuminated
Nov 26
Waxing Gibbous
Nov 28
Full
Dec 6
Last Quarter
Dec 13
New
Dec 20
First Quarter

Hourly Weather History & Observations

Time (CET) Temp. Dew Point Humidity Pressure Visibility Wind Dir Wind Speed Gust Speed Precip Events Conditions
12:55 AM 50.0 °F 46.4 °F 87% 30.18 in 6.2 mi ENE 1.2 mph - N/A   Scattered Clouds
1:00 AM 50 °F 47 °F 85% 30.19 in 9 mi ENE 1.2 mph - -   Partly Cloudy
1:55 AM 48.2 °F 44.6 °F 87% 30.18 in 6.2 mi East 2.3 mph - N/A   Scattered Clouds
2:55 AM 50.0 °F 46.4 °F 87% 30.15 in 6.2 mi NNE 4.6 mph - N/A   Partly Cloudy
3:55 AM 50.0 °F 46.4 °F 87% 30.15 in 6.2 mi East 4.6 mph - N/A   Partly Cloudy
4:00 AM 50 °F 47 °F 85% 30.17 in 9 mi East 4.6 mph - -   Scattered Clouds
4:55 AM 50.0 °F 44.6 °F 82% 30.15 in 6.2 mi East 2.3 mph - N/A   Partly Cloudy
5:55 AM 50.0 °F 44.6 °F 82% 30.15 in 6.2 mi East 4.6 mph - N/A   Partly Cloudy
6:55 AM 50.0 °F 46.4 °F 87% 30.15 in 6.2 mi ESE 1.2 mph - N/A   Partly Cloudy
7:00 AM 49 °F 46 °F 87% 30.17 in 9 mi ESE 1.2 mph - -   Scattered Clouds
7:55 AM 51.8 °F 46.4 °F 82% 30.15 in 6.2 mi ENE 5.8 mph - N/A   Scattered Clouds
8:55 AM 57.2 °F 50.0 °F 77% 30.15 in 6.2 mi ESE 2.3 mph - N/A   Scattered Clouds
10:00 AM 60 °F 47 °F 53% 30.15 in 16 mi ESE 10.4 mph - -   Partly Cloudy
10:55 AM 62.6 °F 51.8 °F 68% 30.12 in 6.2 mi ESE 8.1 mph - N/A   Partly Cloudy
11:55 AM 64.4 °F 50.0 °F 59% 30.09 in 6.2 mi SE 10.4 mph - N/A   Partly Cloudy
12:55 PM 62.6 °F 50.0 °F 63% 30.09 in 6.2 mi SSE 8.1 mph - N/A   Scattered Clouds
1:00 PM 63 °F 50 °F 52% 30.11 in 16 mi SSE 8.1 mph - -   Partly Cloudy
1:55 PM 64.4 °F 51.8 °F 64% 30.06 in 6.2 mi South 12.7 mph - N/A   Partly Cloudy
2:55 PM 64.4 °F 51.8 °F 64% 30.06 in 6.2 mi South 11.5 mph - N/A   Scattered Clouds
3:55 PM 60.8 °F 53.6 °F 77% 30.06 in 6.2 mi SSE 11.5 mph - N/A   Scattered Clouds
4:00 PM 62 °F 53 °F 64% 30.07 in 12 mi SSE 11.5 mph - -   Scattered Clouds
4:55 PM 59.0 °F 53.6 °F 82% 30.06 in 6.2 mi ESE 8.1 mph - N/A   Scattered Clouds
5:55 PM 57.2 °F 51.8 °F 82% 30.04 in 6.2 mi ESE 8.1 mph - N/A   Scattered Clouds
6:55 PM 57.2 °F 51.8 °F 82% 30.04 in 6.2 mi East 9.2 mph - N/A   Partly Cloudy
7:00 PM 57 °F 52 °F 77% 30.05 in 7 mi East 9.2 mph - -   Scattered Clouds
7:55 PM 57.2 °F 51.8 °F 82% 30.04 in 6.2 mi East 10.4 mph - N/A   Partly Cloudy
8:55 PM 55.4 °F 50.0 °F 82% 30.04 in 6.2 mi East 10.4 mph - N/A   Partly Cloudy
9:55 PM 57.2 °F 48.2 °F 72% 30.04 in - East 9.2 mph - N/A   Clear
10:00 PM 57 °F 49 °F 67% 30.04 in 6 mi East 9.2 mph - -  
10:55 PM 57.2 °F 46.4 °F 67% 30.01 in 6.2 mi East 11.5 mph - N/A   Partly Cloudy
11:55 PM 55.4 °F 44.6 °F 67% 30.01 in 6.2 mi East 11.5 mph - N/A   Unknown